owner,sensor,date,latitude,longitude,vertical_datum,direction_of_sea_water_velocity,sea_water_speed,upward_sea_water_velocity,qcFlag 
TABS,ioos:station:wmo:42044:1,2007-12-06T03:30:00Z,26.1914,-97.0507,2.0,67.75353373,38.48466318,-99999.0,'11111222,11111222,99999999' 
TABS,ioos:station:wmo:42044:1,2007-12-06T04:00:00Z,26.1914,-97.0507,2.0,88.85110733,10.97220579,-99999.0,'11111222,11111222,99999999' 
TABS,ioos:station:wmo:42044:1,2007-12-06T04:30:00Z,26.1914,-97.0507,2.0,162.8379109,3.55844067,-99999.0,'11133222,11111222,99999999' 
TABS,ioos:station:wmo:42044:1,2007-12-06T05:00:00Z,26.1914,-97.0507,2.0,88.5219884,14.34477257,-99999.0,'11111222,11111222,99999999' 
TABS,ioos:station:wmo:42044:1,2007-12-06T05:30:00Z,26.1914,-97.0507,2.0,127.7286139,16.1458137,-99999.0,'11111222,11111222,99999999' 
TABS,ioos:station:wmo:42044:1,2007-12-06T06:00:00Z,26.1914,-97.0507,2.0,22.185056,23.30528695,-99999.0,'11111222,11111222,99999999' 
TABS,ioos:station:wmo:42044:1,2007-12-06T06:30:00Z,26.1914,-97.0507,2.0,70.29897556,16.31501149,-99999.0,'11111222,11111222,99999999' 
TABS,ioos:station:wmo:42044:1,2007-12-06T07:00:00Z,26.1914,-97.0507,2.0,35.94223828,12.35161933,-99999.0,'11111222,11111222,99999999' 
TABS,ioos:station:wmo:42044:1,2007-12-06T07:30:00Z,26.1914,-97.0507,2.0,72.08099911,12.64329862,-99999.0,'11111222,11111222,99999999' 
TABS,ioos:station:wmo:42044:1,2007-12-06T08:00:00Z,26.1914,-97.0507,2.0,39.24962305,38.39110574,-99999.0,'11111222,11111222,99999999' 
TABS,ioos:station:wmo:42044:1,2007-12-06T08:30:00Z,26.1914,-97.0507,2.0,347.205841,25.73907535,-99999.0,'11111222,11111222,99999999' 
TABS,ioos:station:wmo:42044:1,2007-12-06T09:00:00Z,26.1914,-97.0507,2.0,355.2778146,13.8470069,-99999.0,'11111222,11111222,99999999' 
TABS,ioos:station:wmo:42044:1,2007-12-06T09:30:00Z,26.1914,-97.0507,2.0,74.88887558,13.96280774,-99999.0,'11111222,11111222,99999999' 
TABS,ioos:station:wmo:42044:1,2007-12-06T10:00:00Z,26.1914,-97.0507,2.0,206.5870466,11.50680668,-99999.0,'11111222,11111222,99999999' 
TABS,ioos:station:wmo:42044:1,2007-12-06T10:30:00Z,26.1914,-97.0507,2.0,333.7367746,12.745764,-99999.0,'11111222,11111222,99999999' 
TABS,ioos:station:wmo:42044:1,2007-12-06T11:00:00Z,26.1914,-97.0507,2.0,42.32048522,19.81358372,-99999.0,'11111222,11111222,99999999' 
TABS,ioos:station:wmo:42044:1,2007-12-06T11:30:00Z,26.1914,-97.0507,2.0,44.15259832,4.78056482,-99999.0,'11133222,11111222,99999999' 
TABS,ioos:station:wmo:42044:1,2007-12-06T12:00:00Z,26.1914,-97.0507,2.0,342.0166961,11.23908359,-99999.0,'11111222,11111222,99999999' 
TABS,ioos:station:wmo:42044:1,2007-12-06T12:30:00Z,26.1914,-97.0507,2.0,37.35137209,25.23489053,-99999.0,'11111222,11111222,99999999' 
TABS,ioos:station:wmo:42044:1,2007-12-06T13:00:00Z,26.1914,-97.0507,2.0,138.473844,12.83636241,-99999.0,'11111222,11111222,99999999' 
TABS,ioos:station:wmo:42044:1,2007-12-06T13:30:00Z,26.1914,-97.0507,2.0,46.50753746,15.59002886,-99999.0,'11111222,11111222,99999999' 
TABS,ioos:station:wmo:42044:1,2007-12-06T14:00:00Z,26.1914,-97.0507,2.0,347.3739906,10.84219996,-99999.0,'11111222,11111222,99999999' 
TABS,ioos:station:wmo:42044:1,2007-12-06T14:30:00Z,26.1914,-97.0507,2.0,342.8478288,13.56324445,-99999.0,'11111222,11111222,99999999' 
TABS,ioos:station:wmo:42044:1,2007-12-06T15:00:00Z,26.1914,-97.0507,2.0,341.8006038,15.40042207,-99999.0,'11111222,11111222,99999999' 
TABS,ioos:station:wmo:42044:1,2007-12-06T15:30:00Z,26.1914,-97.0507,2.0,337.7312811,15.70106366,-99999.0,'11111222,11111222,99999999' 
TABS,ioos:station:wmo:42044:1,2007-12-06T16:00:00Z,26.1914,-97.0507,2.0,331.8722901,16.39647828,-99999.0,'11111222,11111222,99999999' 
TABS,ioos:station:wmo:42044:1,2007-12-06T16:30:00Z,26.1914,-97.0507,2.0,337.8758945,17.78989601,-99999.0,'11111222,11111222,99999999' 
TABS,ioos:station:wmo:42044:1,2007-12-06T17:00:00Z,26.1914,-97.0507,2.0,343.7052496,17.78440328,-99999.0,'11111222,11111222,99999999' 
TABS,ioos:station:wmo:42044:1,2007-12-06T17:30:00Z,26.1914,-97.0507,2.0,338.2187913,21.34382346,-99999.0,'11111222,11111222,99999999' 
TABS,ioos:station:wmo:42044:1,2007-12-06T18:00:00Z,26.1914,-97.0507,2.0,338.8290218,22.45563849,-99999.0,'11111222,11111222,99999999' 
TABS,ioos:station:wmo:42044:1,2007-12-06T18:30:00Z,26.1914,-97.0507,2.0,338.0211754,20.35973477,-99999.0,'11111222,11111222,99999999' 
TABS,ioos:station:wmo:42044:1,2007-12-06T19:00:00Z,26.1914,-97.0507,2.0,346.0774564,20.82172423,-99999.0,'11111222,11111222,99999999' 
TABS,ioos:station:wmo:42044:1,2007-12-06T19:30:00Z,26.1914,-97.0507,2.0,349.1828932,21.89913697,-99999.0,'11111222,11111222,99999999' 
TABS,ioos:station:wmo:42044:1,2007-12-06T20:00:00Z,26.1914,-97.0507,2.0,351.928104,22.3615563,-99999.0,'11111222,11111222,99999999' 
TABS,ioos:station:wmo:42044:1,2007-12-06T20:30:00Z,26.1914,-97.0507,2.0,353.1283563,21.89730577,-99999.0,'11111222,11111222,99999999' 
TABS,ioos:station:wmo:42044:1,2007-12-06T21:00:00Z,26.1914,-97.0507,2.0,353.3638036,23.70886121,-99999.0,'11111222,11111222,99999999' 
TABS,ioos:station:wmo:42044:1,2007-12-06T21:30:00Z,26.1914,-97.0507,2.0,356.3707504,20.85182246,-99999.0,'11111222,11111222,99999999' 
TABS,ioos:station:wmo:42044:1,2007-12-06T22:00:00Z,26.1914,-97.0507,2.0,358.8680328,22.77444621,-99999.0,'11111222,11111222,99999999' 
TABS,ioos:station:wmo:42044:1,2007-12-06T22:30:00Z,26.1914,-97.0507,2.0,357.3912181,20.21095,-99999.0,'11111222,11111222,99999999' 
TABS,ioos:station:wmo:42044:1,2007-12-06T23:00:00Z,26.1914,-97.0507,2.0,8.223005121,19.22767277,-99999.0,'11111222,11111222,99999999' 
TABS,ioos:station:wmo:42044:1,2007-12-06T23:30:00Z,26.1914,-97.0507,2.0,4.289353758,18.85280085,-99999.0,'11111222,11111222,99999999' 
TABS,ioos:station:wmo:42044:1,2007-12-07T00:00:00Z,26.1914,-97.0507,2.0,1.516036736,21.54754046,-99999.0,'11111222,11111222,99999999' 
TABS,ioos:station:wmo:42044:1,2007-12-07T00:30:00Z,26.1914,-97.0507,2.0,4.379296417,20.16887949,-99999.0,'11111222,11111222,99999999' 
TABS,ioos:station:wmo:42044:1,2007-12-07T01:00:00Z,26.1914,-97.0507,2.0,3.39053975,16.90959491,-99999.0,'11111222,11111222,99999999' 
TABS,ioos:station:wmo:42044:1,2007-12-07T01:30:00Z,26.1914,-97.0507,2.0,351.3884333,17.83103474,-99999.0,'11111222,11111222,99999999' 
TABS,ioos:station:wmo:42044:1,2007-12-07T02:00:00Z,26.1914,-97.0507,2.0,1.481345097,15.47517044,-99999.0,'11111222,11111222,99999999' 
TABS,ioos:station:wmo:42044:1,2007-12-07T02:30:00Z,26.1914,-97.0507,2.0,7.789477722,14.97820083,-99999.0,'11111222,11111222,99999999' 
TABS,ioos:station:wmo:42044:1,2007-12-07T03:00:00Z,26.1914,-97.0507,2.0,6.013282379,14.70088433,-99999.0,'11111222,11111222,99999999' 
TABS,ioos:station:wmo:42044:1,2007-12-07T03:30:00Z,26.1914,-97.0507,2.0,2.061963328,12.50809738,-99999.0,'11111222,11111222,99999999' 
TABS,ioos:station:wmo:42044:1,2007-12-07T04:00:00Z,26.1914,-97.0507,2.0,5.522072981,12.99028098,-99999.0,'11111222,11111222,99999999' 
TABS,ioos:station:wmo:42044:1,2007-12-07T04:30:00Z,26.1914,-97.0507,2.0,6.206452235,13.22752433,-99999.0,'11111222,11111222,99999999' 
TABS,ioos:station:wmo:42044:1,2007-12-07T05:00:00Z,26.1914,-97.0507,2.0,352.7521458,12.12690397,-99999.0,'11111222,11111222,99999999' 
TABS,ioos:station:wmo:42044:1,2007-12-07T05:30:00Z,26.1914,-97.0507,2.0,352.2350626,13.32216199,-99999.0,'11111222,11111222,99999999' 
TABS,ioos:station:wmo:42044:1,2007-12-07T06:00:00Z,26.1914,-97.0507,2.0,343.1488321,11.90103357,-99999.0,'11111222,11111222,99999999' 
TABS,ioos:station:wmo:42044:1,2007-12-07T06:30:00Z,26.1914,-97.0507,2.0,3.402717429,12.13138492,-99999.0,'11111222,11111222,99999999' 
TABS,ioos:station:wmo:42044:1,2007-12-07T07:00:00Z,26.1914,-97.0507,2.0,355.9425569,13.14294488,-99999.0,'11111222,11111222,99999999' 
TABS,ioos:station:wmo:42044:1,2007-12-07T07:30:00Z,26.1914,-97.0507,2.0,357.879119,12.69870072,-99999.0,'11111222,11111222,99999999' 
TABS,ioos:station:wmo:42044:1,2007-12-07T08:00:00Z,26.1914,-97.0507,2.0,354.7846006,9.790536247,-99999.0,'11133222,11111222,99999999' 
TABS,ioos:station:wmo:42044:1,2007-12-07T08:30:00Z,26.1914,-97.0507,2.0,347.330852,10.16756116,-99999.0,'11111222,11111222,99999999' 
TABS,ioos:station:wmo:42044:1,2007-12-07T09:00:00Z,26.1914,-97.0507,2.0,0.913853437,10.66135545,-99999.0,'11111222,11111222,99999999' 
TABS,ioos:station:wmo:42044:1,2007-12-07T09:30:00Z,26.1914,-97.0507,2.0,340.1245212,7.29451849,-99999.0,'11133222,11111222,99999999' 
TABS,ioos:station:wmo:42044:1,2007-12-07T10:00:00Z,26.1914,-97.0507,2.0,354.9302211,7.9209911,-99999.0,'11133222,11111222,99999999' 
TABS,ioos:station:wmo:42044:1,2007-12-07T10:30:00Z,26.1914,-97.0507,2.0,347.5617648,7.567628426,-99999.0,'11133222,11111222,99999999' 
TABS,ioos:station:wmo:42044:1,2007-12-07T11:00:00Z,26.1914,-97.0507,2.0,349.3356599,7.835336623,-99999.0,'11133222,11111222,99999999' 
TABS,ioos:station:wmo:42044:1,2007-12-07T11:30:00Z,26.1914,-97.0507,2.0,3.10104317,6.84001462,-99999.0,'11133222,11111222,99999999' 
TABS,ioos:station:wmo:42044:1,2007-12-07T12:00:00Z,26.1914,-97.0507,2.0,343.2717529,5.628187985,-99999.0,'11133222,11111222,99999999' 
TABS,ioos:station:wmo:42044:1,2007-12-07T12:30:00Z,26.1914,-97.0507,2.0,343.0757932,7.797724027,-99999.0,'11133222,11111222,99999999' 
TABS,ioos:station:wmo:42044:1,2007-12-07T13:00:00Z,26.1914,-97.0507,2.0,9.307352844,6.67791135,-99999.0,'11133222,11111222,99999999' 
TABS,ioos:station:wmo:42044:1,2007-12-07T13:30:00Z,26.1914,-97.0507,2.0,335.5320658,3.91126578,-99999.0,'11133222,11111222,99999999' 
TABS,ioos:station:wmo:42044:1,2007-12-07T14:00:00Z,26.1914,-97.0507,2.0,331.8626805,8.800005682,-99999.0,'11133222,11111222,99999999' 
TABS,ioos:station:wmo:42044:1,2007-12-07T14:30:00Z,26.1914,-97.0507,2.0,337.7726939,6.740927236,-99999.0,'11133222,11111222,99999999' 
TABS,ioos:station:wmo:42044:1,2007-12-07T15:00:00Z,26.1914,-97.0507,2.0,346.7357484,6.842550694,-99999.0,'11133222,11111222,99999999' 
TABS,ioos:station:wmo:42044:1,2007-12-07T15:30:00Z,26.1914,-97.0507,2.0,335.3794022,8.041057144,-99999.0,'11133222,11111222,99999999' 
TABS,ioos:station:wmo:42044:1,2007-12-07T16:00:00Z,26.1914,-97.0507,2.0,334.8223591,11.82332018,-99999.0,'11111222,11111222,99999999' 
TABS,ioos:station:wmo:42044:1,2007-12-07T16:30:00Z,26.1914,-97.0507,2.0,332.259543,11.98784801,-99999.0,'11111222,11111222,99999999' 
TABS,ioos:station:wmo:42044:1,2007-12-07T17:00:00Z,26.1914,-97.0507,2.0,330.7634771,14.96661952,-99999.0,'11111222,11111222,99999999' 
TABS,ioos:station:wmo:42044:1,2007-12-07T17:30:00Z,26.1914,-97.0507,2.0,339.3532679,16.95928359,-99999.0,'11111222,11111222,99999999' 
TABS,ioos:station:wmo:42044:1,2007-12-07T18:00:00Z,26.1914,-97.0507,2.0,339.6357786,15.40270106,-99999.0,'11111222,11111222,99999999' 
TABS,ioos:station:wmo:42044:1,2007-12-07T18:30:00Z,26.1914,-97.0507,2.0,336.9731905,16.66811327,-99999.0,'11111222,11111222,99999999' 
TABS,ioos:station:wmo:42044:1,2007-12-07T19:00:00Z,26.1914,-97.0507,2.0,340.4582263,16.20337311,-99999.0,'11111222,11111222,99999999' 
TABS,ioos:station:wmo:42044:1,2007-12-07T19:30:00Z,26.1914,-97.0507,2.0,340.1357435,16.09784147,-99999.0,'11111222,11111222,99999999' 
TABS,ioos:station:wmo:42044:1,2007-12-07T20:00:00Z,26.1914,-97.0507,2.0,340.0453597,15.61765988,-99999.0,'11111222,11111222,99999999' 
TABS,ioos:station:wmo:42044:1,2007-12-07T20:30:00Z,26.1914,-97.0507,2.0,338.8547812,16.38311631,-99999.0,'11111222,11111222,99999999' 
TABS,ioos:station:wmo:42044:1,2007-12-07T21:00:00Z,26.1914,-97.0507,2.0,341.5653047,17.26603602,-99999.0,'11111222,11111222,99999999' 
TABS,ioos:station:wmo:42044:1,2007-12-07T21:30:00Z,26.1914,-97.0507,2.0,348.0937323,14.88013777,-99999.0,'11111222,11111222,99999999' 
TABS,ioos:station:wmo:42044:1,2007-12-07T22:00:00Z,26.1914,-97.0507,2.0,343.3801489,12.48144623,-99999.0,'11111222,11111222,99999999' 
TABS,ioos:station:wmo:42044:1,2007-12-07T22:30:00Z,26.1914,-97.0507,2.0,326.8959375,11.93777199,-99999.0,'11111222,11111222,99999999' 
TABS,ioos:station:wmo:42044:1,2007-12-07T23:00:00Z,26.1914,-97.0507,2.0,331.9751718,13.5147105,-99999.0,'11111222,11111222,99999999' 
TABS,ioos:station:wmo:42044:1,2007-12-07T23:30:00Z,26.1914,-97.0507,2.0,335.9400641,13.09798458,-99999.0,'11111222,11111222,99999999' 
TABS,ioos:station:wmo:42044:1,2007-12-08T00:00:00Z,26.1914,-97.0507,2.0,331.3402342,11.98886567,-99999.0,'11111222,11111222,99999999' 
TABS,ioos:station:wmo:42044:1,2007-12-08T00:30:00Z,26.1914,-97.0507,2.0,332.6730183,10.08555898,-99999.0,'11111222,11111222,99999999' 
TABS,ioos:station:wmo:42044:1,2007-12-08T01:00:00Z,26.1914,-97.0507,2.0,319.8772106,8.317403441,-99999.0,'11133222,11111222,99999999' 
TABS,ioos:station:wmo:42044:1,2007-12-08T01:30:00Z,26.1914,-97.0507,2.0,334.3060001,8.53382095,-99999.0,'11133222,11111222,99999999' 
TABS,ioos:station:wmo:42044:1,2007-12-08T02:00:00Z,26.1914,-97.0507,2.0,332.8892762,8.448248339,-99999.0,'11133222,11111222,99999999' 
TABS,ioos:station:wmo:42044:1,2007-12-08T02:30:00Z,26.1914,-97.0507,2.0,317.6320731,6.929884559,-99999.0,'11133222,11111222,99999999' 
TABS,ioos:station:wmo:42044:1,2007-12-08T03:00:00Z,26.1914,-97.0507,2.0,326.9144472,7.36405459,-99999.0,'11133222,11111222,99999999' 
TABS,ioos:station:wmo:42044:1,2007-12-08T03:30:00Z,26.1914,-97.0507,2.0,328.3381414,11.6782062,-99999.0,'11111222,11111222,99999999' 
TABS,ioos:station:wmo:42044:1,2007-12-08T04:00:00Z,26.1914,-97.0507,2.0,346.2869707,12.90795104,-99999.0,'11111222,11111222,99999999' 
TABS,ioos:station:wmo:42044:1,2007-12-08T04:30:00Z,26.1914,-97.0507,2.0,344.5692829,15.14598627,-99999.0,'11111222,11111222,99999999' 
TABS,ioos:station:wmo:42044:1,2007-12-08T05:00:00Z,26.1914,-97.0507,2.0,347.4939362,13.80762471,-99999.0,'11111222,11111222,99999999' 
TABS,ioos:station:wmo:42044:1,2007-12-08T05:30:00Z,26.1914,-97.0507,2.0,354.7327968,14.92301913,-99999.0,'11111222,11111222,99999999' 
TABS,ioos:station:wmo:42044:1,2007-12-08T06:00:00Z,26.1914,-97.0507,2.0,351.3441521,17.40828826,-99999.0,'11111222,11111222,99999999' 
TABS,ioos:station:wmo:42044:1,2007-12-08T06:30:00Z,26.1914,-97.0507,2.0,350.3052605,17.81442112,-99999.0,'11111222,11111222,99999999' 
TABS,ioos:station:wmo:42044:1,2007-12-08T07:00:00Z,26.1914,-97.0507,2.0,356.6127303,17.60075282,-99999.0,'11111222,11111222,99999999' 
TABS,ioos:station:wmo:42044:1,2007-12-08T07:30:00Z,26.1914,-97.0507,2.0,353.9020128,16.47321766,-99999.0,'11111222,11111222,99999999' 
TABS,ioos:station:wmo:42044:1,2007-12-08T08:00:00Z,26.1914,-97.0507,2.0,354.0744487,18.01627042,-99999.0,'11111222,11111222,99999999' 
TABS,ioos:station:wmo:42044:1,2007-12-08T08:30:00Z,26.1914,-97.0507,2.0,356.394044,17.96557263,-99999.0,'11111222,11111222,99999999' 
TABS,ioos:station:wmo:42044:1,2007-12-08T09:00:00Z,26.1914,-97.0507,2.0,354.6559407,20.07727571,-99999.0,'11111222,11111222,99999999' 
TABS,ioos:station:wmo:42044:1,2007-12-08T09:30:00Z,26.1914,-97.0507,2.0,359.967913,17.74000282,-99999.0,'11111222,11144222,99999999' 
TABS,ioos:station:wmo:42044:1,2007-12-08T10:00:00Z,26.1914,-97.0507,2.0,357.0840162,18.08341782,-99999.0,'11111222,11111222,99999999' 
TABS,ioos:station:wmo:42044:1,2007-12-08T10:30:00Z,26.1914,-97.0507,2.0,357.3889815,17.99868884,-99999.0,'11111222,11111222,99999999' 
TABS,ioos:station:wmo:42044:1,2007-12-08T11:00:00Z,26.1914,-97.0507,2.0,354.9401701,16.21318599,-99999.0,'11111222,11111222,99999999' 
TABS,ioos:station:wmo:42044:1,2007-12-08T11:30:00Z,26.1914,-97.0507,2.0,353.32034,17.88138697,-99999.0,'11111222,11111222,99999999' 
TABS,ioos:station:wmo:42044:1,2007-12-08T12:00:00Z,26.1914,-97.0507,2.0,359.3713811,16.40098778,-99999.0,'11111222,11144222,99999999' 
TABS,ioos:station:wmo:42044:1,2007-12-08T12:30:00Z,26.1914,-97.0507,2.0,349.6759649,18.46902813,-99999.0,'11111222,11111222,99999999' 
TABS,ioos:station:wmo:42044:1,2007-12-08T13:00:00Z,26.1914,-97.0507,2.0,352.2954218,17.52824578,-99999.0,'11111222,11111222,99999999' 
TABS,ioos:station:wmo:42044:1,2007-12-08T13:30:00Z,26.1914,-97.0507,2.0,359.8583898,20.20006188,-99999.0,'11111222,11144222,99999999' 
TABS,ioos:station:wmo:42044:1,2007-12-08T14:00:00Z,26.1914,-97.0507,2.0,342.6353161,18.79669386,-99999.0,'11111222,11111222,99999999' 
TABS,ioos:station:wmo:42044:1,2007-12-08T14:30:00Z,26.1914,-97.0507,2.0,346.1127583,17.74881686,-99999.0,'11111222,11111222,99999999' 
TABS,ioos:station:wmo:42044:1,2007-12-08T15:00:00Z,26.1914,-97.0507,2.0,347.3205634,19.77219512,-99999.0,'11111222,11111222,99999999' 
TABS,ioos:station:wmo:42044:1,2007-12-08T15:30:00Z,26.1914,-97.0507,2.0,344.3400089,22.0796105,-99999.0,'11111222,11111222,99999999' 
TABS,ioos:station:wmo:42044:1,2007-12-08T16:00:00Z,26.1914,-97.0507,2.0,341.0483656,21.03000238,-99999.0,'11111222,11111222,99999999' 
TABS,ioos:station:wmo:42044:1,2007-12-08T16:30:00Z,26.1914,-97.0507,2.0,347.4445201,23.09224978,-99999.0,'11111222,11111222,99999999' 
TABS,ioos:station:wmo:42044:1,2007-12-08T17:00:00Z,26.1914,-97.0507,2.0,348.6494341,24.74397907,-99999.0,'11111222,11111222,99999999' 
TABS,ioos:station:wmo:42044:1,2007-12-08T17:30:00Z,26.1914,-97.0507,2.0,356.2266516,24.46303742,-99999.0,'11111222,11111222,99999999' 
TABS,ioos:station:wmo:42044:1,2007-12-08T18:00:00Z,26.1914,-97.0507,2.0,352.0389645,24.47590039,-99999.0,'11111222,11111222,99999999' 
TABS,ioos:station:wmo:42044:1,2007-12-08T18:30:00Z,26.1914,-97.0507,2.0,359.5601282,27.3408065,-99999.0,'11111222,11144222,99999999' 
TABS,ioos:station:wmo:42044:1,2007-12-08T19:00:00Z,26.1914,-97.0507,2.0,0.25883488,28.8002934,-99999.0,'11111222,11111222,99999999' 
TABS,ioos:station:wmo:42044:1,2007-12-08T19:30:00Z,26.1914,-97.0507,2.0,4.924952549,29.23793768,-99999.0,'11111222,11111222,99999999' 
TABS,ioos:station:wmo:42044:1,2007-12-08T20:00:00Z,26.1914,-97.0507,2.0,4.305968633,28.37007226,-99999.0,'11111222,11111222,99999999' 
TABS,ioos:station:wmo:42044:1,2007-12-08T20:30:00Z,26.1914,-97.0507,2.0,2.397145702,30.36656879,-99999.0,'11111222,11111222,99999999' 
TABS,ioos:station:wmo:42044:1,2007-12-08T21:00:00Z,26.1914,-97.0507,2.0,1.179660062,30.60648461,-99999.0,'11111222,11111222,99999999' 
TABS,ioos:station:wmo:42044:1,2007-12-08T21:30:00Z,26.1914,-97.0507,2.0,358.2627753,30.01379849,-99999.0,'11111222,11111222,99999999' 
TABS,ioos:station:wmo:42044:1,2007-12-08T22:00:00Z,26.1914,-97.0507,2.0,2.446688929,26.00370166,-99999.0,'11111222,11111222,99999999' 
TABS,ioos:station:wmo:42044:1,2007-12-08T22:30:00Z,26.1914,-97.0507,2.0,359.8843214,24.72005057,-99999.0,'11111222,11144222,99999999' 
TABS,ioos:station:wmo:42044:1,2007-12-08T23:00:00Z,26.1914,-97.0507,2.0,0.222094379,23.24017427,-99999.0,'11111222,11111222,99999999' 
TABS,ioos:station:wmo:42044:1,2007-12-08T23:30:00Z,26.1914,-97.0507,2.0,355.6396998,23.01662443,-99999.0,'11111222,11111222,99999999' 
TABS,ioos:station:wmo:42044:1,2007-12-09T00:00:00Z,26.1914,-97.0507,2.0,357.5454472,22.18035392,-99999.0,'11111222,11111222,99999999' 
TABS,ioos:station:wmo:42044:1,2007-12-09T00:30:00Z,26.1914,-97.0507,2.0,352.0492926,19.44694578,-99999.0,'11111222,11111222,99999999' 
TABS,ioos:station:wmo:42044:1,2007-12-09T01:00:00Z,26.1914,-97.0507,2.0,353.4821494,18.85185667,-99999.0,'11111222,11111222,99999999' 
TABS,ioos:station:wmo:42044:1,2007-12-09T01:30:00Z,26.1914,-97.0507,2.0,351.6532256,19.42577669,-99999.0,'11111222,11111222,99999999' 
TABS,ioos:station:wmo:42044:1,2007-12-09T02:00:00Z,26.1914,-97.0507,2.0,353.8126657,19.48350328,-99999.0,'11111222,11111222,99999999' 
TABS,ioos:station:wmo:42044:1,2007-12-09T02:30:00Z,26.1914,-97.0507,2.0,347.6323334,21.24299885,-99999.0,'11111222,11111222,99999999' 
TABS,ioos:station:wmo:42044:1,2007-12-09T03:00:00Z,26.1914,-97.0507,2.0,350.4070986,18.72180547,-99999.0,'11111222,11111222,99999999' 
TABS,ioos:station:wmo:42044:1,2007-12-09T03:30:00Z,26.1914,-97.0507,2.0,348.7466916,17.93482924,-99999.0,'11111222,11111222,99999999' 
TABS,ioos:station:wmo:42044:1,2007-12-09T04:00:00Z,26.1914,-97.0507,2.0,349.070748,17.72144464,-99999.0,'11111222,11111222,99999999' 
TABS,ioos:station:wmo:42044:1,2007-12-09T04:30:00Z,26.1914,-97.0507,2.0,345.3062335,16.47895628,-99999.0,'11111222,11111222,99999999' 
TABS,ioos:station:wmo:42044:1,2007-12-09T05:00:00Z,26.1914,-97.0507,2.0,350.1288904,17.73252661,-99999.0,'11111222,11111222,99999999' 
TABS,ioos:station:wmo:42044:1,2007-12-09T05:30:00Z,26.1914,-97.0507,2.0,353.0803868,18.01119929,-99999.0,'11111222,11111222,99999999' 
TABS,ioos:station:wmo:42044:1,2007-12-09T06:00:00Z,26.1914,-97.0507,2.0,357.4882888,17.79710089,-99999.0,'11111222,11111222,99999999' 
TABS,ioos:station:wmo:42044:1,2007-12-09T06:30:00Z,26.1914,-97.0507,2.0,351.3784552,16.80996133,-99999.0,'11111222,11111222,99999999' 
TABS,ioos:station:wmo:42044:1,2007-12-09T07:00:00Z,26.1914,-97.0507,2.0,355.8492301,15.61095128,-99999.0,'11111222,11111222,99999999' 
TABS,ioos:station:wmo:42044:1,2007-12-09T07:30:00Z,26.1914,-97.0507,2.0,354.0988656,16.43711045,-99999.0,'11111222,11111222,99999999' 
TABS,ioos:station:wmo:42044:1,2007-12-09T08:00:00Z,26.1914,-97.0507,2.0,355.5116667,14.18350098,-99999.0,'11111222,11111222,99999999' 
TABS,ioos:station:wmo:42044:1,2007-12-09T08:30:00Z,26.1914,-97.0507,2.0,350.0295705,13.34150291,-99999.0,'11111222,11111222,99999999' 
TABS,ioos:station:wmo:42044:1,2007-12-09T09:00:00Z,26.1914,-97.0507,2.0,351.7887083,13.93284608,-99999.0,'11111222,11111222,99999999' 
TABS,ioos:station:wmo:42044:1,2007-12-09T09:30:00Z,26.1914,-97.0507,2.0,0.586834794,14.6507679,-99999.0,'11111222,11111222,99999999' 
TABS,ioos:station:wmo:42044:1,2007-12-09T10:00:00Z,26.1914,-97.0507,2.0,6.535004991,9.753368649,-99999.0,'11133222,11111222,99999999' 
TABS,ioos:station:wmo:42044:1,2007-12-09T10:30:00Z,26.1914,-97.0507,2.0,0.302825491,11.36015845,-99999.0,'11111222,11111222,99999999' 
TABS,ioos:station:wmo:42044:1,2007-12-09T11:00:00Z,26.1914,-97.0507,2.0,355.2960422,12.80312852,-99999.0,'11111222,11111222,99999999' 
TABS,ioos:station:wmo:42044:1,2007-12-09T11:30:00Z,26.1914,-97.0507,2.0,9.588021063,12.00773084,-99999.0,'11111222,11111222,99999999' 
TABS,ioos:station:wmo:42044:1,2007-12-09T12:00:00Z,26.1914,-97.0507,2.0,359.5843623,12.40032661,-99999.0,'11111222,11144222,99999999' 
TABS,ioos:station:wmo:42044:1,2007-12-09T12:30:00Z,26.1914,-97.0507,2.0,352.3012606,10.5248753,-99999.0,'11111222,11111222,99999999' 
TABS,ioos:station:wmo:42044:1,2007-12-09T13:00:00Z,26.1914,-97.0507,2.0,2.933288226,11.33484892,-99999.0,'11111222,11111222,99999999' 
TABS,ioos:station:wmo:42044:1,2007-12-09T13:30:00Z,26.1914,-97.0507,2.0,3.893430775,12.51888973,-99999.0,'11111222,11111222,99999999' 
TABS,ioos:station:wmo:42044:1,2007-12-09T14:00:00Z,26.1914,-97.0507,2.0,351.4166091,11.25607836,-99999.0,'11111222,11111222,99999999' 
TABS,ioos:station:wmo:42044:1,2007-12-09T14:30:00Z,26.1914,-97.0507,2.0,346.2281491,11.04761513,-99999.0,'11111222,11111222,99999999' 
TABS,ioos:station:wmo:42044:1,2007-12-09T15:00:00Z,26.1914,-97.0507,2.0,352.3179293,13.39018297,-99999.0,'11111222,11111222,99999999' 
TABS,ioos:station:wmo:42044:1,2007-12-09T15:30:00Z,26.1914,-97.0507,2.0,344.6819105,14.30833324,-99999.0,'11111222,11111222,99999999' 
TABS,ioos:station:wmo:42044:1,2007-12-09T16:00:00Z,26.1914,-97.0507,2.0,346.5778981,12.45006827,-99999.0,'11111222,11111222,99999999' 
TABS,ioos:station:wmo:42044:1,2007-12-09T16:30:00Z,26.1914,-97.0507,2.0,341.5262484,13.91718722,-99999.0,'11111222,11111222,99999999' 
TABS,ioos:station:wmo:42044:1,2007-12-09T17:00:00Z,26.1914,-97.0507,2.0,346.7687687,14.50506119,-99999.0,'11111222,11111222,99999999' 
TABS,ioos:station:wmo:42044:1,2007-12-09T17:30:00Z,26.1914,-97.0507,2.0,347.2783737,14.48561355,-99999.0,'11111222,11111222,99999999' 
TABS,ioos:station:wmo:42044:1,2007-12-09T18:00:00Z,26.1914,-97.0507,2.0,343.682551,13.95200702,-99999.0,'11111222,11111222,99999999' 
TABS,ioos:station:wmo:42044:1,2007-12-09T18:30:00Z,26.1914,-97.0507,2.0,344.1400339,14.78276023,-99999.0,'11111222,11111222,99999999' 
TABS,ioos:station:wmo:42044:1,2007-12-09T19:00:00Z,26.1914,-97.0507,2.0,334.1747062,14.55354252,-99999.0,'11111222,11111222,99999999' 
TABS,ioos:station:wmo:42044:1,2007-12-09T19:30:00Z,26.1914,-97.0507,2.0,338.6469733,14.72051969,-99999.0,'11111222,11111222,99999999' 